RH
65 58 54 58 60 68 67 70 67 72 70 74 91 96 94 86 80 84 87 78 71 77 72 59 50 47 78 74 75 75 83 98 75 80 80 94 94 99 98 95 77 79 87
60 63 64 70 73 77 76 67 75 80 86 96 94 73 72 81 84 81 78 73 72 70 55 48 73 82 79 81 72 84 86 87 71 78 88 73 85 86 90 90 80 73 82
64 67 71 72 72 68 69 73 78 90 98 97 59 71 76 76 65 61 64 64 81 65 50 67 74 65 45 70 69 69 67 71 66 63 62 65 62 66 60 71 81 77 67
76 64 88 97 75 70 73 80 89 97 85 53 64 69 67 60 60 63 58 66 87 86 87 76 56 55 70 69 70 69 64 54 60 51 50 49 51 58 57 51 49 61 60
70 84 94 94 89 70 75 84 90 86 49 53 58 62 57 48 67 53 72 89 92 92 92 84 35 34 35 62 66 68 69 54 50 50 50 55 64 62 64 58 51 52 55
89 90 87 66 65 74 83 88 92 52 48 55 60 54 48 61 32 35 90 90 92 86 87 87 55 53 46 41 41 41 40 78 84 75 61 70 79 74 71 71 58 60 50
65 78 64 60 66 75 78 87 72 53 52 67 55 32 30 31 37 39 59 71 62 62 78 72 59 72 85 84 62 60 47 43 43 80 78 81 79 86 86 80 78 74 65
60 63 62 65 71 80 84 86 51 48 54 47 31 35 27 20 23 24 18 30 57 67 75 74 74 70 70 79 70 71 72 36 33 50 58 51 47 46 44 63 71 58 48
55 60 66 71 79 85 89 62 47 50 47 32 31 29 19 13 15 18 47 59 65 70 64 67 70 55 49 47 73 73 73 71 54 39 40 45 44 40 35 58 57 49 45
53 57 66 73 82 86 84 43 44 46 42 55 34 35 29 18 19 22 57 57 63 61 69 51 52 50 49 43 70 67 66 65 63 67 69 67 69 69 64 69 64 53 49
52 57 66 76 84 88 71 39 39 43 48 36 32 39 39 26 24 34 58 58 58 56 59 62 54 52 51 45 34 33 32 52 59 53 52 52 54 54 57 70 49 67 63
49 57 66 79 87 87 47 34 37 36 39 36 36 49 50 41 32 38 44 58 60 61 57 59 50 53 47 38 34 32 38 56 50 49 50 52 54 57 64 73 74 73 86
48 58 70 83 88 77 34 31 35 38 66 70 80 73 73 53 45 41 40 45 49 68 62 55 50 49 54 61 31 30 57 54 52 50 53 57 58 60 67 64 62 67 64
48 59 72 81 86 56 33 33 44 54 67 64 64 66 74 71 68 42 37 41 48 55 52 50 52 56 50 46 59 61 59 57 62 59 58 58 57 58 58 61 60 60 58
50 61 72 83 82 37 47 40 60 55 56 49 52 58 67 68 65 50 58 57 59 64 66 60 65 63 60 56 56 61 62 61 60 61 61 58 56 57 58 59 61 58 57
47 61 76 90 76 43 52 40 42 46 21 16 41 58 64 64 44 26 34 48 53 56 64 60 59 58 56 52 52 55 59 60 60 62 61 57 56 58 59 58 57 58 58
44 60 86 90 73 56 61 50 35 32 15 15 17 19 33 16 19 24 29 35 45 49 58 58 58 58 57 54 53 53 54 62 52 63 62 57 57 57 52 51 50 53 54
45 52 67 78 64 45 50 54 51 29 16 19 23 23 23 22 19 23 27 30 38 47 59 56 58 59 58 56 56 56 59 61 60 62 59 56 57 53 50 50 50 54 57
48 55 71 71 60 54 56 58 56 45 31 30 27 29 31 31 32 31 26 29 48 51 57 58 58 57 58 59 61 65 63 63 54 57 58 58 56 53 52 51 53 60 64
58 45 58 66 61 57 55 53 56 46 37 42 43 25 28 35 36 31 26 24 48 48 50 53 56 58 58 62 66 70 68 66 62 60 57 61 60 58 54 56 60 62 59
58 49 64 69 59 45 50 52 51 46 37 41 45 49 25 22 31 38 34 30 30 46 51 54 58 60 62 67 67 70 66 64 62 63 59 60 58 56 56 59 63 61 58
73 47 53 68 63 57 52 51 51 50 42 38 43 51 51 30 51 55 60 52 40 42 42 37 54 62 63 49 63 68 65 64 65 63 58 57 56 53 55 60 62 62 59
74 67 55 68 64 55 54 50 50 50 50 43 41 47 52 51 57 55 58 60 60 39 33 43 41 64 57 58 62 68 65 65 66 61 56 53 54 56 59 62 65 63 63
74 74 76 75 68 59 55 52 49 49 49 50 46 46 56 57 62 56 56 60 54 37 39 41 42 46 46 49 55 70 58 66 66 62 40 46 56 59 62 64 64 66 63
74 75 76 77 71 65 60 54 52 52 54 52 50 48 53 49 39 50 55 52 44 40 39 47 52 44 49 47 55 57 69 63 59 53 36 42 52 59 66 66 67 67 64
72 74 76 76 74 70 58 38 26 24 47 39 50 53 40 44 43 34 36 38 33 37 35 44 54 54 60 52 55 64 66 62 60 52 35 47 56 65 64 67 67 70 71
Wind_Speed
23 20 17 11 9 7 7 6 3 3 5 7 5 4 4 5 4 2 2 2 2 2 4 6 6 6 6 7 6 7 8 7 5 5 9 12 11 11 10 10 10 10 15
24 22 19 16 14 13 10 7 7 7 6 5 5 5 5 4 2 2 2 3 6 6 7 7 7 7 10 10 9 10 9 9 6 6 7 9 12 12 12 11 9 9 9
23 22 21 19 15 12 9 9 11 8 5 4 3 4 5 5 4 5 7 7 8 8 9 9 9 9 10 10 10 10 10 10 10 8 9 9 10 11 12 11 11 9 10
21 20 18 16 16 13 12 11 8 6 4 4 6 7 7 7 7 7 7 8 8 9 9 8 8 8 10 11 11 12 12 10 11 10 9 10 10 13 12 13 13 10 12
21 19 18 17 15 13 12 9 7 7 6 8 10 9 8 8 6 8 8 8 9 9 9 10 11 13 13 12 10 12 12 10 9 9 9 10 12 13 15 13 12 11 10
21 20 19 19 15 12 10 10 8 7 11 11 11 10 9 8 9 11 11 9 9 9 9 9 11 12 13 13 14 12 13 10 10 10 9 10 11 11 13 11 12 12 12
20 20 21 20 18 16 14 11 10 13 14 13 12 10 9 10 12 11 14 10 10 10 10 10 7 7 9 9 11 11 10 10 10 10 9 10 9 11 11 11 12 11 11
23 22 21 21 20 16 14 14 15 15 15 14 12 11 10 11 12 11 11 12 13 13 11 10 9 8 7 7 6 7 8 9 8 8 8 8 10 12 13 12 13 14 10
25 25 23 20 19 16 17 16 17 18 17 15 13 12 11 11 13 12 14 12 11 11 11 10 9 9 8 7 6 6 7 8 11 10 11 11 12 12 13 10 12 12 13
27 23 22 21 19 18 16 19 20 18 17 16 15 13 11 11 15 15 16 10 10 8 8 10 9 7 8 8 7 7 6 7 7 7 9 11 11 14 19 14 13 13 13
27 24 23 20 19 18 19 22 21 20 18 17 16 14 13 13 16 16 18 10 8 8 6 6 5 6 9 9 8 7 7 7 9 7 7 8 9 10 11 11 13 12 11
27 25 24 23 22 21 22 23 22 21 20 18 17 15 15 15 15 15 14 13 12 7 7 5 4 6 8 9 8 9 9 11 6 6 7 8 10 10 10 11 12 12 8
27 27 26 25 24 23 24 24 24 22 19 18 17 15 15 16 16 14 13 12 10 8 7 7 2 4 9 9 8 8 9 6 7 7 8 9 10 10 10 11 10 12 10
29 30 29 28 26 26 27 25 23 22 19 18 18 17 16 17 16 17 15 13 11 9 7 4 3 3 4 3 8 6 4 4 5 7 8 9 10 10 10 11 11 12 11
31 31 30 29 28 29 25 25 21 20 19 19 18 18 19 19 18 17 16 12 10 11 10 6 3 2 0 1 2 3 3 3 4 6 7 9 10 10 10 11 12 12 12
33 33 31 29 30 28 26 28 26 23 21 20 20 17 17 16 17 16 17 17 15 12 9 6 4 3 1 1 2 4 5 5 4 4 6 9 9 9 11 10 11 11 13
33 32 29 27 27 28 26 26 28 26 25 23 21 20 20 17 17 18 18 16 17 16 14 11 8 5 4 1 1 3 4 5 6 5 6 8 8 9 11 11 12 12 12
34 32 32 30 28 30 29 26 26 29 30 29 27 25 22 19 18 19 18 17 20 20 14 11 10 8 5 4 3 3 4 5 5 4 6 8 8 9 9 10 10 11 13
36 34 32 29 28 28 28 26 25 25 25 25 29 28 27 25 22 21 19 18 15 14 14 12 11 10 8 6 6 5 5 4 5 4 5 7 7 7 8 9 10 13 15
36 36 36 32 29 31 30 29 28 27 27 27 28 33 32 30 29 26 23 21 17 17 16 16 15 13 12 11 9 7 6 6 5 5 6 7 8 7 8 9 10 12 14
37 39 38 32 32 33 32 31 30 29 29 29 28 29 34 33 30 27 26 24 23 22 21 21 20 19 18 16 14 11 9 7 7 5 5 6 7 6 7 8 10 11 13
34 38 40 36 30 30 31 29 29 27 26 27 25 25 32 29 27 25 25 25 25 24 26 27 26 24 22 21 17 13 11 10 7 7 6 5 5 5 6 7 9 11 13
32 33 37 35 31 30 31 29 29 29 28 27 27 27 34 34 28 27 27 26 25 27 28 28 30 26 25 23 19 17 15 13 9 8 6 5 4 3 4 5 8 11 13
31 31 30 31 30 30 29 29 28 28 26 26 27 28 30 31 30 29 28 28 28 31 32 31 32 31 29 27 24 17 16 15 11 9 8 6 4 5 3 5 7 10 13
31 30 30 30 31 32 29 30 31 29 31 29 29 29 32 35 34 31 29 30 30 31 35 33 34 36 33 30 30 25 18 19 17 12 9 7 5 5 4 4 5 8 12
35 34 32 31 32 33 34 34 36 37 37 31 29 36 38 38 33 33 37 36 39 38 38 36 38 39 36 30 31 26 26 22 23 16 11 10 6 5 4 5 7 8 11
Wind_Direction
181 173 167 187 211 227 225 248 253 297 282 268 255 254 256 250 227 233 293 316 44 53 72 73 69 66 53 39 35 28 17 42 27 27 23 13 20 23 19 33 25 18 0
190 195 207 210 214 218 222 231 263 265 229 222 222 227 214 200 192 182 137 107 100 88 76 67 61 54 51 57 41 53 54 45 54 51 36 23 23 26 26 30 39 22 10
187 192 194 199 200 208 214 226 231 218 190 184 186 171 169 170 143 128 120 105 97 88 81 74 68 64 69 61 67 65 51 55 55 58 39 34 23 29 28 24 27 21 27
181 188 183 181 193 197 209 214 199 179 181 169 162 164 153 128 120 115 114 114 101 93 84 79 78 72 67 59 60 54 61 53 52 53 47 37 31 24 29 26 21 10 24
179 180 178 178 180 197 204 199 192 173 167 168 161 151 138 117 123 128 124 116 111 102 86 76 82 79 75 87 68 64 64 64 53 46 40 31 26 22 19 14 14 11 360
175 177 180 188 192 194 194 185 186 169 165 159 151 151 142 146 150 143 126 126 115 102 97 93 84 77 77 71 64 57 53 59 43 47 29 23 14 12 4 13 2 2 356
183 181 186 190 189 189 192 185 175 160 158 153 153 147 144 146 137 134 127 122 111 108 107 104 94 87 75 56 47 46 40 35 37 35 32 25 11 4 0 4 359 360 349
193 192 191 192 195 193 187 178 164 161 159 157 153 148 145 140 134 135 129 120 115 110 104 100 100 98 93 77 50 40 36 19 34 43 36 23 11 3 7 355 347 351 355
201 200 198 198 195 188 185 172 167 164 161 160 155 149 146 145 137 134 123 122 118 112 109 107 96 84 67 53 44 41 42 36 12 23 20 13 6 9 7 17 6 1 355
203 201 199 198 195 189 181 175 173 168 166 162 159 154 150 150 142 142 127 134 122 120 107 99 96 68 41 34 52 54 43 32 33 23 11 12 16 0 359 13 8 6 357
204 199 200 197 193 189 182 179 175 169 173 169 168 164 160 157 150 145 138 145 130 122 114 112 89 51 30 29 40 44 43 59 15 22 15 10 6 2 360 8 10 13 358
205 199 199 196 192 190 186 178 179 181 179 175 176 169 171 165 161 155 151 153 145 136 133 145 77 39 23 28 34 32 45 44 12 12 9 3 2 357 359 3 0 4 357
201 200 197 194 194 191 186 185 183 184 182 177 176 172 175 179 177 171 164 158 152 138 163 164 86 41 37 18 21 25 46 20 14 7 360 357 358 352 4 354 357 353 345
197 198 196 196 195 192 188 189 187 185 184 183 182 182 184 183 186 186 180 176 170 172 174 158 73 74 61 43 26 12 23 25 33 5 357 352 354 355 354 350 350 348 349
198 197 197 197 196 191 186 189 190 194 191 188 187 187 187 190 192 189 183 180 180 188 167 177 155 151 27 355 349 352 360 6 3 353 354 351 352 351 347 347 344 343 339
197 197 195 193 188 188 188 193 194 198 196 194 187 185 193 194 204 193 190 187 189 185 170 184 189 207 257 292 314 346 344 348 331 350 348 348 349 346 335 344 335 338 336
201 195 193 188 184 186 189 194 196 197 193 195 192 192 195 197 192 194 194 193 188 187 183 196 196 201 212 245 286 306 320 306 328 348 339 343 343 339 337 338 338 339 335
200 202 199 194 189 191 193 194 195 201 199 198 193 190 195 191 194 197 196 197 199 201 201 208 211 204 213 220 242 286 300 315 315 323 331 336 337 332 335 334 334 326 331
197 200 198 197 193 193 192 192 194 198 199 199 198 197 195 195 196 200 203 207 204 210 214 214 221 222 220 223 233 247 290 288 292 297 311 322 319 327 325 325 329 331 335
199 207 203 198 194 194 195 195 195 198 196 197 200 205 203 202 205 207 210 207 205 209 210 210 210 221 223 226 231 242 267 286 289 303 298 305 307 317 327 326 332 332 333
199 207 204 198 201 201 199 200 200 200 200 202 203 204 211 212 210 211 214 215 213 212 210 211 211 201 213 220 225 234 244 259 270 269 284 300 300 313 324 324 331 332 332
198 207 207 204 202 203 203 203 204 207 207 206 206 210 216 216 209 211 212 214 213 214 218 217 211 216 206 216 223 228 240 246 257 263 272 282 286 299 318 328 332 333 338
201 205 207 204 204 206 204 205 207 208 210 210 208 210 220 214 210 213 215 216 210 212 217 220 217 212 215 220 220 219 226 240 241 251 258 257 252 269 300 321 332 337 339
203 206 206 203 203 207 206 207 209 210 214 215 214 213 224 217 216 217 218 217 213 215 215 222 225 219 222 224 232 217 236 233 238 251 274 241 223 266 294 316 330 330 339
206 207 208 207 205 203 206 203 207 213 214 212 218 218 218 234 224 219 223 221 222 219 220 225 226 224 221 226 238 238 227 245 252 251 267 226 218 245 254 284 308 330 333
207 209 209 208 207 209 219 224 230 219 219 225 229 229 228 230 228 228 230 236 231 227 227 228 235 232 231 225 231 236 232 240 245 245 239 219 208 219 246 282 305 318 326